Simultaneous Nadir Overpasses (SNOs) Predictions

Prediction of SNOs between GOES-15 and LANDSAT-8 Satellite Orbit:

Table of predicted SNOs for the next 14.0 days since TLE Epoch: 11/16/2024
Index Date Time (GOES-15) GOES-15 Lat,Lon LANDSAT-8 Lat,Lon Distance(km) Time Diff (sec)
1 11/17/2024 17:59:42 0.20, 61.67 0.41, 62.77 124.29 80
2 11/18/2024 06:20:59 -0.19, 61.60 0.64, 57.60 453.85 80
3 11/19/2024 17:47:34 0.20, 61.72 1.07, 65.71 454.94 80
4 11/20/2024 06:08:50 -0.19, 61.64 0.03, 60.55 122.84 80
5 11/22/2024 05:59:20 -0.18, 61.68 -0.55, 63.51 208.37 80
6 11/22/2024 18:20:45 0.17, 61.76 -0.54, 58.32 391.16 80
7 11/24/2024 18:08:35 0.17, 61.80 0.08, 61.27 60.02 80
8 11/26/2024 17:53:44 0.17, 61.85 0.67, 64.23 271.09 80
9 11/27/2024 06:14:59 -0.16, 61.79 0.41, 59.07 309.02 80
10 11/29/2024 06:05:28 -0.16, 61.84 -0.21, 62.03 21.98 80
